Location: Caucaguita
(10.3578°N, 66.8025°W)
Time: 02:01:48
(UTC+00:00)

Meteor 2-12 Rocket - Pass Details

Date: 18 November 2025
Orbit: 935 x 958 km, 82.5° (Epoch: 09 December)

Event Time Altitude Azimuth Distance (km) Brightness Sun altitude
Rises 22:24:14 0° 356° (N) 3,587 7.3 -6.2°
Reaches altitude 10° 22:26:43 10° 356° (N) 2,641 6.6 -6.7°
Maximum altitude 22:32:45 89° 84° (E) 938 4.5 -8.1°
Drops below altitude 10° 22:38:47 10° 176° (S) 2,637 7.0 -9.5°
Sets 22:41:15 0° 176° (S) 3,582 7.7 -10.1°
